Back to catalog

PEGASUS R/B(2)

AliveLEO
NORAD 25484·ROCKET BODY·🇺🇸 United States

Launched Sep 23, 1998 from Cape Canaveral Space Force Station

Loading…

Next Passes (next 24 hours)

TLE

FreshSource: Space-Track

Epoch: Sep 14, 2026, 15:03 UTC

1 25484U 98053K   26257.62720814  .00000038  00000-0  51994-4 0  9993
2 25484  44.5293 118.6767 0063250 238.3916 149.5578 14.43556855473500

Track PEGASUS R/B(2) in real time with AllMySat

Download on the App Store